Theta_e
311 311 311 311 311 310 310 310 309 308 308 313 312 316 317 312 307 316 321 325 320 314 305 306 300 303 304 307 306 307 306 305 304 305 305 305 306 305 304 302 301 302 301 301 300 300 297 298 297 299 300 300 303 305 305 307 305 303 301 303 304 304 296 292 293 297 300 301 303 304 305 306 299 300 303 301 296 296 293 293 295 289 291 289 288 285 290
311 311 310 310 310 310 310 310 309 309 308 310 313 316 316 312 311 311 320 325 321 310 296 297 299 302 305 305 304 306 305 304 303 303 304 303 304 302 303 304 305 301 305 302 298 301 292 299 299 298 300 298 306 307 306 306 303 301 300 297 304 293 297 294 288 288 291 294 298 299 302 302 298 296 300 300 299 299 298 297 298 286 290 291 288 283 289
310 310 310 310 310 310 310 310 309 309 309 311 314 313 317 316 315 313 314 321 318 307 308 304 300 303 303 304 302 304 305 305 304 304 304 306 305 304 302 303 304 302 304 301 302 302 299 296 301 300 300 300 307 307 307 306 302 305 308 305 306 296 295 292 286 283 280 281 283 285 287 291 296 297 298 299 298 296 294 288 291 286 291 293 288 288 296
310 310 310 310 310 310 309 309 309 308 308 309 315 316 315 310 298 310 311 314 313 311 313 309 306 303 303 295 303 304 302 304 305 305 305 304 306 305 305 305 305 302 301 299 299 298 302 298 297 298 298 300 302 304 305 303 303 308 307 305 304 295 298 295 293 289 287 289 293 296 295 294 291 294 296 297 298 299 296 295 290 286 290 289 292 293 295
310 310 310 310 310 309 309 309 308 308 308 308 312 317 319 315 304 303 301 312 310 308 309 308 306 302 306 297 304 301 301 302 305 305 301 305 304 305 305 303 301 299 300 298 297 299 298 301 299 299 298 301 301 304 303 304 308 307 304 305 303 298 293 295 295 294 294 296 295 297 298 294 295 294 294 297 297 298 294 289 287 296 290 286 295 296 294
310 310 310 310 310 310 310 310 309 308 308 308 316 315 314 304 307 312 314 307 298 302 300 308 305 307 308 302 304 301 300 300 297 303 305 305 307 300 302 303 302 301 299 299 293 297 297 298 295 300 299 299 301 299 303 302 306 305 303 306 302 295 290 296 295 295 296 297 298 299 298 297 297 296 296 295 297 297 294 294 296 296 289 287 294 297 295
310 310 310 310 310 310 310 309 309 308 308 309 318 314 315 311 309 308 312 305 306 304 306 309 307 304 303 302 303 301 300 299 301 300 301 302 302 304 292 298 301 301 301 299 295 297 292 291 298 297 297 297 297 296 299 302 305 303 302 302 304 297 293 296 296 294 295 296 297 297 296 296 297 296 297 297 297 296 296 296 297 297 295 296 295 296 296
310 310 310 310 310 310 310 310 309 308 307 315 321 314 311 308 309 307 312 311 308 308 309 308 307 303 303 297 303 302 301 300 302 303 300 294 299 304 299 299 301 301 301 300 296 298 298 298 294 299 298 297 298 297 297 297 301 302 299 301 302 297 290 296 296 292 293 296 297 297 297 296 294 296 296 296 297 296 297 297 297 297 295 297 297 296 294
310 310 310 310 310 310 310 310 309 308 308 319 319 314 315 315 316 315 310 306 304 308 308 306 304 300 303 301 302 302 302 300 302 300 304 302 299 301 298 300 300 302 301 300 299 302 301 300 300 301 299 294 300 296 297 300 296 299 298 299 299 299 292 297 294 288 289 295 295 295 296 296 295 294 295 296 295 294 296 293 296 294 293 295 295 293 294
310 310 310 310 310 310 310 310 309 308 309 320 318 312 319 320 318 318 312 304 301 304 307 305 304 299 305 305 304 302 302 304 302 296 303 304 304 303 302 302 300 299 299 299 300 302 302 302 303 303 303 303 302 302 301 301 298 297 297 299 296 298 294 290 291 287 287 293 295 294 295 293 289 291 295 296 296 296 297 298 299 299 298 293 289 292 300
310 309 309 310 310 310 310 310 310 309 313 315 314 315 316 314 313 314 313 304 305 305 304 304 303 304 307 305 305 304 302 301 302 297 295 303 304 305 303 302 299 297 298 302 305 306 305 306 305 305 304 304 303 302 302 302 302 300 299 297 297 297 295 292 295 286 287 293 293 294 289 282 284 296 301 299 296 297 294 295 297 300 299 296 300 299 301
310 309 309 309 309 309 310 310 310 310 310 315 318 317 318 317 316 315 309 301 299 304 302 303 304 304 305 305 301 302 302 302 302 303 300 302 304 305 304 303 302 293 304 307 307 306 307 307 306 306 304 304 304 303 303 301 301 302 302 299 297 296 295 291 295 288 287 291 292 286 281 283 297 301 302 302 301 300 298 298 299 300 301 300 298 299 300
309 309 308 308 308 309 310 310 310 310 309 314 317 315 318 320 315 313 310 307 301 304 302 305 308 306 305 304 302 303 304 304 304 304 303 302 302 303 304 302 301 302 307 305 306 304 300 298 298 299 298 300 301 302 301 301 301 302 303 303 299 294 293 292 290 292 291 288 286 279 282 294 298 300 301 303 302 300 299 295 299 301 300 300 298 300 302
309 309 309 308 308 308 309 309 309 310 309 311 314 316 318 318 313 313 311 304 302 308 304 303 305 304 304 303 303 303 304 303 305 305 302 305 303 302 304 305 306 307 307 307 304 302 297 296 290 293 294 296 297 296 299 302 301 301 301 302 302 300 298 293 288 293 284 286 286 285 293 293 294 295 297 298 295 296 294 288 293 300 301 300 299 300 302
309 308 308 308 308 308 309 309 309 309 310 309 314 317 317 317 316 313 314 311 301 304 306 299 304 305 303 303 303 301 302 303 301 301 304 306 303 305 305 306 308 307 308 304 299 300 296 294 288 287 290 289 285 288 297 294 298 301 302 301 302 302 296 295 288 287 291 285 284 285 285 282 287 295 299 303 302 302 301 295 292 299 300 302 299 299 301
308 307 307 307 306 307 308 308 309 309 310 309 314 316 317 319 319 317 314 309 305 298 304 309 310 306 304 304 304 302 298 299 300 300 300 303 303 305 306 308 309 308 306 303 301 296 293 289 287 287 285 287 293 290 289 294 293 298 302 302 302 302 300 298 291 288 289 286 283 282 281 284 291 294 298 301 303 302 302 295 288 297 299 300 301 299 302
307 306 306 306 306 306 307 308 309 309 310 309 310 314 314 319 315 314 312 311 307 299 310 309 308 306 300 301 304 304 304 298 299 295 293 298 302 302 304 307 309 307 304 300 299 295 291 290 292 291 292 294 289 287 292 291 290 291 296 298 298 297 293 292 289 286 287 286 284 283 286 285 293 297 299 300 301 302 297 284 285 296 300 301 302 301 300
306 306 306 306 306 305 306 308 308 309 309 308 310 313 315 319 318 318 313 310 304 304 309 310 307 305 304 305 304 307 306 304 303 303 300 301 301 301 302 303 301 305 306 296 297 292 290 289 287 288 287 295 295 294 284 291 287 288 289 291 290 291 290 291 287 288 288 286 285 287 288 293 299 299 301 301 303 299 286 282 289 300 301 302 303 303 303
306 306 306 307 306 306 307 308 308 309 309 309 311 314 314 318 317 318 313 307 306 300 309 310 309 305 309 310 308 307 306 305 304 296 296 297 301 303 304 303 304 297 302 295 297 291 290 290 295 293 289 291 294 287 292 288 287 293 293 289 289 290 290 289 290 287 286 287 285 286 288 295 300 301 302 303 298 286 285 295 302 302 302 304 304 303 303
306 306 306 306 307 307 307 307 307 308 308 309 309 311 315 317 318 316 313 308 308 306 309 309 308 306 309 305 304 303 305 302 303 300 298 294 305 304 299 295 302 302 299 300 291 295 291 288 291 295 290 291 293 295 290 292 295 291 291 293 289 288 285 286 287 289 289 287 284 284 280 291 302 302 299 302 289 291 299 301 303 305 304 303 303 302 303
306 306 307 307 307 307 307 308 309 309 309 309 309 311 312 317 317 318 317 311 307 302 305 311 310 308 308 305 307 308 305 302 303 300 303 302 305 300 290 291 298 298 293 295 290 291 292 290 293 292 295 293 293 292 287 288 291 296 295 293 293 295 286 286 289 293 284 284 282 284 291 297 303 299 290 297 298 302 301 300 300 303 304 303 302 303 304
305 306 307 307 307 307 308 309 309 309 309 309 308 311 311 315 316 316 316 314 308 303 307 311 312 310 311 312 311 311 309 307 308 308 303 297 306 302 301 302 301 300 301 301 297 296 298 296 297 292 290 291 296 290 292 287 285 292 297 295 285 297 291 294 287 294 288 287 290 297 299 301 302 301 302 303 304 304 302 302 301 300 303 306 302 302 304
305 305 306 306 306 306 307 307 308 308 308 309 310 312 310 313 314 317 316 309 311 311 312 311 310 310 311 310 312 313 313 313 312 311 309 303 298 302 301 300 299 305 305 305 298 299 297 297 291 295 293 294 290 289 292 291 287 292 289 297 295 299 298 300 296 293 298 299 299 301 301 302 301 303 304 303 303 304 304 304 301 302 303 304 303 303 304
305 305 305 305 305 305 306 306 306 307 307 307 308 312 312 314 316 313 310 308 305 300 305 310 307 302 307 307 310 312 311 310 311 313 315 311 298 298 304 305 305 305 304 306 308 300 299 298 297 298 290 295 295 290 286 286 288 293 292 291 295 298 298 296 291 295 291 287 300 298 299 301 302 301 305 305 306 304 305 304 304 305 305 304 305 304 305
304 304 304 304 304 304 305 305 306 306 307 307 310 312 313 313 315 312 309 298 298 299 295 300 301 310 311 313 314 311 311 313 314 313 312 312 308 302 300 306 308 302 301 305 308 304 299 294 296 296 289 297 296 288 295 290 289 297 289 292 293 292 300 294 294 293 290 290 296 298 299 301 302 303 300 301 303 304 305 305 305 305 306 306 305 305 305
304 304 304 304 303 304 304 305 305 306 306 307 307 312 311 310 315 314 311 310 308 304 295 296 304 311 312 310 307 309 313 312 312 312 311 310 310 310 307 308 307 310 307 307 305 299 296 295 295 294 292 292 301 293 292 296 294 297 293 293 297 297 299 290 295 292 294 297 298 298 299 300 301 301 303 303 303 303 303 304 304 305 304 304 305 307 306
305 304 304 304 304 304 304 305 305 305 306 306 309 312 312 313 315 312 309 308 303 297 299 296 306 308 309 305 309 311 310 309 310 309 309 309 308 309 309 307 305 305 304 302 303 300 297 295 294 293 296 295 298 297 297 296 295 292 291 296 299 296 291 297 295 290 289 290 294 299 291 291 297 300 301 302 305 304 303 303 304 304 304 304 304 305 306
305 304 304 304 304 304 304 305 305 305 306 307 309 310 313 311 313 314 314 312 306 298 300 300 302 306 310 307 310 310 310 310 309 308 308 307 308 307 306 305 305 303 302 300 295 296 295 293 293 297 298 299 296 294 299 298 298 295 295 295 298 294 296 296 291 290 289 296 299 301 299 298 299 301 302 303 305 305 303 302 303 304 306 306 306 305 305
305 304 304 304 304 304 304 305 305 306 306 306 309 309 309 310 312 314 314 315 312 307 302 301 305 303 296 305 310 309 310 309 308 308 307 306 306 306 305 304 303 303 303 300 297 296 295 295 298 295 295 303 296 292 295 290 290 288 293 298 299 299 301 299 299 298 299 301 301 301 299 297 299 302 303 303 304 305 304 305 305 305 305 306 306 306 305
304 304 304 303 304 304 304 305 305 305 306 309 308 306 301 305 311 312 314 314 313 308 298 294 292 296 310 308 306 307 308 309 308 307 305 305 305 305 304 304 304 304 303 298 297 293 295 295 295 301 302 304 296 293 291 292 291 293 299 299 300 301 302 302 302 299 298 303 302 302 302 301 303 304 304 304 305 304 303 303 304 304 305 306 305 306 307
303 303 304 304 304 304 305 305 306 306 306 307 306 298 297 295 304 312 311 314 314 308 300 298 295 300 298 306 307 305 306 306 306 306 306 306 304 305 306 306 305 303 297 297 296 296 296 294 295 298 301 302 297 292 292 292 289 292 298 300 300 301 301 301 303 304 302 302 303 303 303 303 304 303 303 304 304 304 304 305 306 307 307 306 306 306 306
303 303 304 305 305 305 305 306 306 306 308 306 303 302 303 305 308 312 313 311 313 306 298 294 293 295 296 300 306 308 305 305 304 303 304 305 303 305 306 304 303 305 300 298 298 297 295 296 296 298 298 303 298 295 295 293 289 292 298 300 302 301 302 302 302 303 302 303 302 301 300 300 303 302 301 304 304 305 306 305 306 307 307 307 307 307 307
303 303 304 304 305 305 306 306 306 307 308 309 308 307 308 308 307 310 310 313 310 305 305 296 291 294 291 300 307 306 305 304 303 304 302 306 303 305 302 304 304 302 307 299 295 294 299 295 298 295 299 305 295 293 294 291 293 298 299 301 301 301 301 302 303 302 302 302 302 298 297 299 301 304 305 305 305 306 306 305 306 306 306 305 304 305 306
303 303 304 304 305 305 306 306 307 306 307 306 304 306 311 308 310 307 316 313 308 307 301 295 291 291 293 304 298 303 305 300 301 304 298 305 306 304 298 301 303 296 300 298 298 297 299 299 295 295 300 296 300 294 289 294 298 299 300 301 302 302 303 303 301 301 302 302 303 303 303 303 304 304 305 305 305 306 306 306 305 304 304 303 303 303 304
303 303 304 305 305 306 306 306 306 305 304 306 309 312 312 307 307 310 311 311 300 295 295 294 295 292 291 293 292 300 308 301 297 302 296 300 308 302 302 295 298 293 295 304 296 296 294 294 299 293 291 297 292 289 291 296 298 299 299 299 301 301 301 299 300 301 302 302 303 304 304 304 303 302 303 304 303 304 303 304 304 304 302 302 302 303 303
304 304 305 305 306 306 307 306 307 305 303 305 308 309 307 307 307 316 315 313 307 299 295 294 295 292 295 290 291 297 305 300 302 303 301 300 300 303 301 298 291 295 302 300 293 297 293 300 296 290 296 291 289 293 296 298 298 300 300 300 301 301 300 300 300 301 302 303 304 304 304 303 302 302 303 303 303 303 303 303 303 303 302 301 301 302 302
303 304 305 305 306 305 302 301 307 308 309 313 310 308 307 310 314 314 311 307 309 309 300 295 293 294 296 295 295 301 303 293 301 298 300 295 294 297 297 292 291 294 294 292 292 291 296 303 294 291 291 290 292 298 299 299 299 298 299 301 302 302 302 301 302 302 301 302 303 303 302 301 301 302 302 302 302 302 302 302 301 301 301 300 301 301 302
304 305 306 304 303 296 296 301 306 312 308 307 308 308 307 307 298 298 299 296 302 304 299 299 293 298 301 298 291 302 298 295 301 293 294 297 293 292 296 292 292 292 287 290 293 300 295 294 291 290 291 297 299 300 300 301 301 302 302 302 302 302 302 303 302 302 299 299 299 300 301 301 301 302 301 301 302 302 303 304 302 302 302 303 302 302 302
303 304 305 305 301 296 296 304 312 309 310 310 311 301 296 299 296 293 293 295 295 293 298 297 293 298 298 297 298 303 299 296 293 295 290 299 292 289 293 288 293 293 290 289 292 301 290 291 291 291 290 295 296 299 301 302 303 303 303 303 303 303 303 303 304 302 301 299 300 301 301 299 299 300 301 301 301 302 303 304 304 303 303 303 303 302 301
302 298 298 299 297 301 308 310 309 309 307 299 301 297 290 296 292 288 296 290 291 294 297 291 298 299 300 297 296 296 304 299 292 291 292 293 300 290 292 291 293 289 285 286 289 298 290 286 289 289 288 293 295 300 301 302 301 302 302 303 304 304 304 303 303 304 303 303 302 302 302 302 302 301 300 300 300 300 301 303 304 304 304 304 303 302 302
303 304 302 297 305 307 309 310 311 307 299 294 293 293 291 289 292 293 291 290 290 291 299 297 299 297 299 300 299 293 302 304 302 300 296 291 299 296 290 287 294 287 286 285 292 293 291 288 288 287 289 294 296 299 300 301 301 301 302 303 303 304 303 303 303 303 302 300 300 301 301 301 301 301 301 302 302 301 301 302 303 303 304 304 302 302 303
305 305 307 311 309 310 308 306 302 297 295 295 289 287 289 289 293 292 292 287 289 293 296 298 294 296 297 299 298 300 298 304 302 295 292 288 294 291 289 290 291 286 283 290 295 292 290 285 286 287 293 296 298 299 299 300 300 301 302 303 303 303 303 302 301 301 302 301 300 300 300 301 301 301 301 301 301 301 301 301 303 305 304 303 304 304 303
306 307 310 306 305 301 300 293 296 294 287 287 286 284 288 285 288 288 289 292 299 297 298 304 301 303 302 304 299 301 298 303 296 293 291 289 295 293 289 288 287 283 288 294 290 288 285 285 285 289 295 297 298 299 299 300 301 302 302 303 303 303 303 302 301 301 301 301 301 301 300 300 300 301 301 301 301 301 301 301 301 301 302 305 303 304 303
308 307 302 298 295 295 294 284 294 289 287 288 285 281 285 285 288 290 289 292 295 294 300 297 297 297 292 299 297 294 294 299 296 293 292 293 291 288 288 285 286 292 296 289 288 285 286 288 290 293 296 297 298 299 300 301 301 301 301 302 302 302 302 302 301 301 300 301 301 300 301 300 300 301 301 301 301 300 300 300 301 302 301 302 303 304 303
299 296 295 292 289 293 289 283 293 288 283 286 288 286 287 285 288 291 291 298 299 295 299 300 299 297 294 299 299 298 296 291 296 290 287 290 288 289 286 285 290 291 287 284 285 286 287 286 293 295 296 296 298 299 300 301 301 300 300 301 301 301 301 301 300 300 300 299 299 299 299 299 299 299 300 300 301 301 300 299 300 300 300 300 300 301 302
294 292 291 286 283 288 288 285 288 284 289 290 288 290 290 292 294 294 299 301 298 298 297 298 298 298 295 296 293 292 293 293 290 290 292 291 286 284 290 293 291 285 285 285 283 282 285 290 293 294 296 297 298 299 300 300 301 301 300 299 300 300 301 300 300 300 299 299 299 298 298 299 299 299 299 300 300 300 300 300 301 300 300 300 300 300 301
295 294 293 290 285 288 291 285 287 289 292 293 294 294 294 295 297 299 301 301 299 300 300 300 299 297 294 294 293 294 294 293 288 291 292 286 285 289 292 287 283 284 282 281 283 284 288 292 294 296 297 297 298 299 299 299 300 299 299 299 299 299 300 299 299 298 298 299 299 298 298 298 299 299 299 298 299 300 300 300 301 301 300 299 300 300 301
290 294 293 285 283 286 285 288 294 295 297 297 297 298 298 299 299 297 301 301 300 300 299 298 295 295 293 297 295 290 292 292 289 290 291 288 290 286 285 284 283 285 286 284 285 290 291 294 295 297 298 298 298 297 297 298 299 299 299 298 299 298 298 298 298 298 298 298 297 297 298 298 298 298 298 298 298 299 300 300 301 301 301 300 300 300 300
296 292 288 287 289 289 289 292 292 290 293 295 296 297 297 297 296 299 300 301 299 298 299 297 294 294 290 293 291 290 287 291 285 286 290 288 284 281 282 280 282 281 286 289 289 292 293 295 297 298 297 297 297 297 298 298 298 297 298 297 298 298 298 297 298 298 298 297 297 297 297 298 298 298 298 298 297 298 300 300 300 301 301 300 300 300 300
291 290 292 290 289 289 292 293 292 289 292 293 294 295 297 297 297 299 301 298 299 298 297 294 296 291 291 291 287 289 288 290 288 289 286 284 285 286 284 281 283 284 286 291 292 293 295 296 297 296 297 297 297 297 296 297 296 297 297 298 297 297 297 297 297 297 297 297 297 297 298 298 297 297 297 297 298 299 299 300 300 300 300 301 301 300 299
295 292 292 296 290 289 291 286 287 288 290 291 292 294 296 296 297 298 301 299 297 297 293 290 290 289 288 287 286 282 285 291 288 286 285 285 288 286 284 283 286 290 291 294 295 295 295 296 296 296 296 296 297 297 297 297 297 297 297 297 297 297 297 297 297 297 297 297 298 293 297 297 298 298 299 299 299 298 299 299 299 300 300 300 300 300 299
291 288 288 292 295 294 292 293 293 292 293 294 295 298 298 296 298 299 301 298 295 291 289 291 290 288 286 283 286 288 290 288 285 286 284 287 289 286 286 288 290 292 293 294 294 296 296 297 297 297 296 295 296 296 296 297 297 297 297 297 297 296 297 297 297 297 297 297 297 297 297 298 299 299 299 298 298 298 297 297 298 299 299 299 300 300 300
Wind_Speed
17 19 18 18 18 18 19 19 20 21 23 13 10 9 6 1 6 1 3 4 8 8 3 6 4 7 4 5 8 5 3 8 2 4 7 4 5 5 6 6 6 5 5 9 9 9 7 10 7 8 7 5 4 3 6 8 10 7 6 6 3 2 4 8 11 12 14 16 17 13 4 13 15 10 10 3 1 3 5 8 3 2 5 7 6 6 3
17 18 19 18 19 19 19 18 18 17 17 11 11 8 6 5 3 3 3 5 6 7 3 3 4 2 6 9 5 5 4 7 8 6 6 5 6 6 4 5 5 7 6 7 9 8 6 3 10 8 7 5 5 5 1 3 6 6 4 2 6 4 0 3 8 8 8 9 7 2 7 8 6 7 7 5 7 1 2 6 0 1 11 12 9 10 2
17 18 18 18 18 17 18 18 17 17 15 13 7 6 7 6 3 3 3 3 5 5 5 3 2 5 3 4 5 2 0 5 3 7 6 4 5 6 4 5 6 5 6 8 8 8 8 9 8 9 9 8 5 9 6 2 4 5 6 1 4 5 8 6 7 10 10 9 7 4 4 6 6 9 13 13 11 10 10 3 5 6 7 7 9 9 7
17 17 18 17 16 17 18 18 18 18 16 16 8 6 6 4 1 1 4 4 2 4 4 7 9 3 4 3 4 3 2 5 5 9 3 2 4 5 5 5 7 5 8 8 8 10 9 8 8 9 9 9 8 10 14 12 9 11 6 1 1 3 7 8 9 8 10 11 9 4 7 3 4 7 11 13 10 4 3 4 4 6 4 6 8 10 12
16 16 17 16 16 17 18 18 20 19 18 14 8 6 4 5 3 3 3 3 3 4 4 5 5 5 4 2 2 3 3 4 4 3 5 6 5 5 4 6 6 7 8 8 10 9 10 10 10 10 11 10 11 15 15 14 11 6 1 1 3 7 9 11 12 13 14 14 15 13 10 12 11 12 14 12 12 5 5 5 8 3 7 10 8 10 8
15 16 16 15 16 17 18 18 20 21 21 19 6 6 5 2 4 2 3 4 4 4 3 8 6 5 5 4 1 2 3 4 3 1 3 6 5 6 2 4 6 7 8 9 7 10 11 10 7 10 10 11 12 13 12 11 4 5 5 6 3 4 3 10 12 14 13 14 15 14 12 11 11 12 12 14 14 12 12 13 14 11 7 11 11 12 11
14 15 15 15 15 16 17 18 19 22 25 17 3 6 5 3 3 3 3 3 5 5 5 6 1 4 6 4 2 3 2 4 6 7 6 5 5 4 3 7 7 8 9 8 8 9 8 6 10 10 11 12 12 11 11 8 2 2 2 4 2 1 6 10 10 13 14 14 13 9 13 13 11 12 14 14 14 15 16 15 13 13 13 13 15 17 16
13 14 14 15 16 15 16 18 19 22 27 17 5 3 7 6 6 3 2 2 4 2 4 4 7 4 4 0 3 2 2 4 7 7 5 4 5 5 7 8 9 9 9 8 8 9 10 11 12 11 12 13 10 10 9 9 10 9 6 2 2 2 4 10 12 12 14 13 13 10 12 12 11 12 13 13 13 15 16 16 13 11 17 19 17 13 13
11 11 12 14 16 15 16 18 19 22 22 7 7 5 6 5 4 3 6 4 4 1 4 5 8 1 2 1 5 5 6 3 1 5 4 3 5 5 6 8 8 8 9 8 9 9 11 12 14 14 12 12 11 10 9 11 12 12 11 6 3 4 6 9 9 9 11 11 12 9 11 12 12 12 14 15 16 14 7 8 4 9 9 9 12 12 7
9 9 11 12 15 16 15 16 18 20 22 6 8 6 7 7 3 4 5 4 3 5 3 4 5 2 5 6 4 4 3 1 5 4 4 4 1 3 7 7 8 8 9 9 9 12 13 15 15 14 14 14 14 14 15 13 11 11 11 10 10 3 3 6 7 10 10 11 12 13 12 11 11 10 1 4 4 6 6 10 5 4 3 4 6 7 1
8 9 10 12 14 16 15 15 16 17 13 8 7 6 7 6 7 7 3 5 3 4 6 4 6 4 4 4 4 1 2 4 3 3 3 5 6 9 8 8 7 7 8 10 12 13 15 16 17 14 15 16 16 13 12 15 12 11 10 8 7 10 9 8 3 4 9 14 14 12 10 8 4 4 1 3 3 3 6 8 9 4 3 6 6 6 4
7 7 9 10 13 15 14 14 15 14 11 8 7 7 5 6 7 6 4 4 1 1 5 4 5 5 3 4 1 4 6 7 7 6 7 7 9 7 7 7 6 5 8 12 12 13 15 15 16 15 18 20 23 20 15 14 11 7 8 9 10 11 6 7 4 4 9 12 12 9 8 4 3 5 8 10 8 10 10 11 11 9 9 11 11 12 10
7 6 6 8 10 13 13 12 14 14 13 9 8 6 6 7 6 5 6 5 5 3 5 5 3 5 5 2 3 4 2 6 8 7 5 6 7 6 5 5 7 9 10 13 13 13 12 13 12 12 15 17 13 16 16 14 12 12 11 11 9 6 6 3 5 6 7 7 5 5 3 9 8 6 3 5 3 7 5 6 4 8 9 10 11 7 7
6 6 6 6 7 10 12 11 13 14 14 11 8 6 5 6 6 5 4 3 4 3 3 1 5 4 3 1 3 7 6 5 2 4 7 3 4 6 7 6 8 8 9 11 11 10 8 9 8 10 10 11 8 2 3 6 7 8 7 7 6 7 3 1 5 4 6 5 9 10 13 12 6 4 8 10 8 8 6 3 6 12 12 12 8 8 8
5 5 7 8 8 9 11 11 11 12 13 14 7 8 4 6 6 5 5 6 4 6 4 2 7 6 2 2 4 6 6 5 6 3 5 4 5 3 5 6 6 8 10 9 8 7 6 7 7 8 7 7 6 7 9 7 5 5 6 5 9 1 5 3 1 2 3 7 9 8 7 8 3 4 6 6 8 9 7 6 3 7 11 11 11 10 8
5 7 9 9 9 10 10 10 10 12 12 15 8 7 3 4 4 5 5 5 4 3 5 5 4 3 3 1 1 4 4 5 5 6 6 5 5 5 6 5 7 8 8 8 6 6 5 5 7 7 7 8 9 8 6 9 8 4 3 5 9 4 5 4 4 6 6 6 7 7 8 2 4 6 7 7 5 8 10 7 3 5 8 9 8 8 8
7 8 8 9 9 10 10 9 10 11 10 10 7 9 2 6 4 6 5 4 4 3 4 5 3 3 4 6 8 5 3 3 7 4 3 4 1 5 5 3 5 7 5 6 6 6 6 6 8 9 8 8 8 7 11 7 9 9 10 9 9 4 3 5 4 4 6 9 8 8 1 2 3 1 6 6 8 8 6 7 2 6 7 6 4 5 6
7 6 7 8 8 8 9 9 9 10 10 9 7 6 5 4 2 5 5 5 4 4 4 3 2 3 3 6 5 5 1 3 5 4 5 7 6 4 5 5 6 4 2 4 5 4 5 4 7 7 8 9 9 10 7 10 9 8 11 11 8 7 3 1 7 6 7 6 7 6 1 2 3 5 8 10 8 4 2 2 3 5 7 6 5 7 8
6 6 6 7 6 7 7 7 8 10 10 9 9 8 3 4 6 5 5 5 4 2 5 3 2 5 5 5 4 4 5 4 4 3 2 6 5 7 8 2 4 4 2 4 7 5 5 5 6 7 8 8 8 6 9 7 8 9 12 10 11 7 5 3 2 6 6 6 8 7 3 3 7 5 7 7 8 3 4 2 6 6 6 6 8 9 9
5 5 6 6 6 7 9 9 9 9 9 6 6 5 5 4 3 4 5 5 4 5 2 5 2 3 3 3 2 3 2 1 3 5 3 4 8 10 6 3 4 4 7 3 4 5 5 6 7 7 7 8 7 9 8 10 9 12 10 10 7 0 1 5 5 3 2 0 6 8 5 1 7 10 9 4 6 7 7 9 7 3 6 8 9 9 9
2 4 5 4 5 7 8 9 8 8 7 4 4 4 4 2 4 2 3 5 5 3 2 6 3 2 2 1 2 4 3 4 3 5 4 6 5 3 2 3 6 6 3 3 5 5 3 5 7 5 6 8 8 7 9 11 12 7 10 9 9 9 5 5 3 4 6 6 4 3 2 5 7 6 1 6 5 5 9 12 13 9 7 8 8 7 7
2 2 3 1 3 6 5 6 5 4 4 3 4 4 6 1 2 1 4 4 6 4 5 6 6 6 5 5 3 3 6 6 4 3 5 4 3 4 4 6 5 5 3 3 5 5 5 5 5 6 9 8 7 8 11 11 10 9 8 7 4 3 6 1 2 2 1 5 8 9 12 6 1 5 7 5 6 7 7 7 8 9 10 12 11 10 10
3 1 1 1 2 4 7 7 7 6 5 5 4 5 5 2 1 3 4 5 5 7 7 6 5 6 5 5 3 5 4 4 3 2 3 4 3 3 4 4 3 3 5 4 5 6 7 7 7 6 9 6 7 10 10 9 8 9 8 4 4 5 5 2 5 7 8 12 15 14 9 6 10 9 2 2 3 4 3 4 4 5 6 7 9 13 13
4 3 1 1 3 4 5 7 8 8 7 6 4 4 4 5 3 2 3 4 5 3 4 5 5 3 4 6 9 6 2 4 5 2 2 2 3 2 2 5 6 5 4 5 3 5 5 6 7 6 8 7 9 7 8 9 7 10 9 7 7 3 4 2 3 5 6 5 8 13 18 16 11 12 10 6 4 6 5 6 6 7 8 10 11 12 13
6 4 2 0 1 3 6 7 7 8 8 8 7 6 5 5 2 2 4 1 1 2 3 2 5 3 6 7 5 5 6 2 6 4 4 5 5 5 5 5 7 5 8 8 4 5 3 7 8 6 9 7 6 8 7 9 9 8 9 9 9 4 4 6 4 6 4 6 10 12 14 17 11 6 8 10 11 11 10 9 10 11 11 12 13 15 15
6 5 3 2 1 3 5 6 7 7 9 9 7 3 4 3 3 3 3 4 5 3 3 3 4 4 3 4 6 5 4 7 8 12 8 6 6 6 7 7 6 5 7 6 6 5 4 5 5 7 9 6 4 6 7 9 12 11 10 10 8 8 8 4 4 4 7 10 6 7 13 10 9 13 10 9 11 12 13 14 13 13 12 12 12 10 11
7 5 3 3 3 2 4 5 6 7 7 9 6 4 4 3 3 3 3 5 5 2 3 3 3 4 4 6 4 3 1 4 3 4 5 7 8 7 6 6 6 6 6 7 6 5 3 4 5 9 8 8 6 9 9 10 9 8 8 7 7 4 6 8 8 8 6 6 8 8 7 7 11 11 14 14 12 11 13 13 13 12 13 12 11 10 10
7 6 5 4 3 4 4 5 5 6 6 7 6 4 4 4 3 4 5 5 5 4 4 5 5 4 5 9 6 2 5 6 4 4 5 7 8 9 8 7 7 6 6 4 4 4 4 7 9 6 7 7 7 7 7 9 9 9 9 3 2 4 6 6 6 7 8 11 11 8 7 10 11 12 12 12 12 12 12 12 12 13 12 12 11 12 12
7 7 5 3 5 5 5 5 6 6 6 6 5 5 5 5 4 4 4 4 4 5 5 6 7 6 4 3 4 4 3 4 6 6 6 6 5 7 8 7 7 7 6 5 4 4 5 7 6 8 6 3 3 8 8 7 6 7 8 4 4 3 2 4 10 12 11 10 9 9 9 11 12 12 11 12 11 11 12 12 12 13 13 13 12 11 13
8 6 4 4 5 6 7 7 6 5 5 3 3 3 3 3 5 5 3 2 3 3 2 2 2 0 4 2 6 5 10 7 4 5 9 11 11 7 7 6 8 8 6 5 4 5 4 5 5 9 3 8 3 4 5 7 8 9 8 9 8 5 3 6 8 9 11 10 10 10 9 10 10 10 10 10 10 12 11 12 11 12 12 12 13 12 12
7 6 5 6 7 6 7 7 7 2 3 3 4 2 3 2 5 3 2 3 2 3 2 3 4 5 5 5 4 6 7 7 6 4 5 6 8 8 8 6 6 7 4 4 5 6 4 7 5 8 8 5 3 4 8 10 10 10 9 10 8 8 8 8 8 11 11 9 9 10 10 9 9 10 10 11 13 11 11 10 11 10 9 12 12 12 10
7 6 6 7 7 7 7 7 6 3 4 5 3 2 3 3 2 3 4 2 1 3 2 3 3 3 2 2 5 3 4 3 4 5 5 5 7 6 8 6 7 6 5 4 4 4 5 5 8 9 10 3 3 7 9 10 10 10 11 11 7 9 8 8 9 10 9 9 9 10 9 10 9 9 10 12 11 11 11 11 11 11 10 10 11 9 9
8 7 8 6 6 7 7 6 5 4 3 5 4 5 7 6 6 7 4 2 2 3 3 3 3 2 2 2 5 9 4 2 5 5 6 8 8 3 6 5 5 6 5 3 4 3 4 4 5 8 6 3 3 4 9 10 10 10 12 11 10 10 9 8 10 9 9 8 8 9 10 11 12 11 9 9 10 10 11 11 11 10 10 11 12 11 7
8 7 6 5 7 8 7 6 4 5 4 3 4 6 5 7 6 3 2 4 3 3 1 2 2 3 3 1 6 5 4 4 6 6 5 7 6 3 4 4 5 4 3 6 4 5 5 6 6 6 6 6 6 6 9 11 10 10 9 10 12 11 10 7 9 9 9 9 9 9 8 9 10 11 10 9 10 10 10 10 12 13 12 12 11 11 11
7 6 5 6 7 5 4 4 4 5 6 5 1 6 7 6 3 1 1 2 2 2 2 3 2 3 4 3 4 5 5 5 5 2 2 4 10 6 2 1 2 4 2 2 5 4 5 6 7 6 8 7 6 6 6 10 12 10 8 10 12 8 9 9 9 9 9 9 9 9 9 10 10 9 9 10 10 10 11 12 12 12 12 11 11 11 11
5 4 5 6 5 5 4 3 5 6 5 4 4 6 9 7 5 3 2 2 2 4 2 2 2 5 4 4 2 3 1 6 5 5 4 1 5 4 4 3 5 7 7 5 5 7 7 5 3 7 5 7 7 7 9 10 12 10 8 10 10 9 9 9 9 11 10 10 10 10 9 8 10 10 10 10 11 11 11 11 11 11 11 11 11 10 10
5 5 5 5 4 4 5 4 5 6 1 5 8 9 7 6 4 3 3 3 4 3 3 3 4 6 6 5 1 3 4 5 5 7 5 4 3 3 2 3 7 3 4 5 6 7 7 5 4 5 5 8 8 10 12 11 10 10 10 9 8 8 8 9 10 10 11 11 11 8 9 12 12 11 12 11 11 12 13 10 11 13 13 13 12 11 10
5 6 6 5 4 2 2 4 4 6 9 11 12 7 3 3 2 1 1 2 3 2 3 4 6 8 8 8 3 3 1 3 5 3 3 2 2 3 2 3 4 2 6 4 7 7 5 3 4 7 6 10 11 13 13 10 9 8 6 7 8 8 8 8 9 9 10 11 10 11 11 11 11 10 10 12 13 11 9 10 10 11 12 12 11 11 12
5 5 5 6 4 3 1 3 7 11 7 4 4 1 1 1 2 2 2 2 1 4 4 6 7 8 8 7 3 5 2 3 3 2 4 3 1 2 1 5 1 2 5 5 4 3 4 4 5 6 9 9 10 6 3 3 5 3 4 6 7 7 7 8 8 10 10 10 11 12 12 12 13 13 12 12 11 11 13 12 10 12 13 13 12 12 13
4 4 3 3 4 2 4 5 7 7 5 2 2 2 1 3 3 2 3 2 3 3 3 5 8 8 10 8 8 2 2 3 4 3 4 6 2 2 3 3 3 3 6 6 5 3 4 5 4 5 7 8 4 6 3 4 4 4 6 7 7 8 8 9 9 9 10 12 12 12 12 12 12 12 13 11 11 12 13 11 9 10 10 11 13 15 15
5 5 5 4 4 6 5 5 5 5 3 3 2 2 1 2 3 1 1 5 4 2 5 6 6 7 7 12 8 2 2 1 1 2 3 4 2 2 3 3 2 4 5 7 3 4 4 5 5 7 7 8 11 5 3 4 4 5 5 6 7 7 8 9 10 11 11 12 12 12 11 13 13 13 13 15 14 14 13 12 11 10 9 8 9 13 17
8 3 1 6 6 5 5 5 3 2 1 3 2 2 2 2 1 2 2 3 4 2 6 7 8 9 9 9 4 4 4 1 3 1 1 3 1 2 3 3 2 4 5 3 5 5 5 7 6 6 7 9 8 4 3 3 4 6 7 8 7 6 9 11 14 14 14 13 13 14 13 14 15 14 13 13 13 13 15 14 11 10 10 7 5 7 3
8 4 5 6 3 3 3 3 3 2 2 2 2 2 3 3 4 4 3 3 2 4 4 7 1 4 4 2 5 4 1 3 2 2 3 4 1 2 2 3 2 6 5 5 4 5 6 6 7 8 9 9 8 6 5 4 5 6 7 6 7 8 9 12 14 14 14 15 15 14 14 14 13 14 15 16 14 15 15 14 14 14 10 2 4 3 2
4 4 3 3 2 3 3 4 3 2 3 2 4 5 4 4 4 4 3 4 6 6 7 9 7 5 3 4 3 2 2 1 2 0 3 2 2 3 3 4 6 7 5 6 5 8 8 6 8 9 10 9 6 6 5 5 5 6 7 7 8 10 11 12 14 15 15 14 14 14 15 15 15 14 14 13 14 15 15 15 14 12 13 11 9 4 5
5 3 3 3 2 3 2 3 3 3 5 6 3 5 5 6 6 9 8 6 7 6 7 7 6 6 4 5 2 2 1 1 2 1 2 2 3 4 4 6 4 3 5 8 6 7 5 7 8 10 10 4 6 6 6 6 6 7 8 9 10 10 12 13 14 14 15 15 16 16 15 15 15 15 15 15 15 14 15 15 15 15 15 15 13 10 9
5 6 5 3 2 4 4 3 3 4 4 4 4 6 7 7 7 9 10 6 6 5 7 8 7 7 5 5 2 2 3 2 3 3 3 3 4 5 3 3 3 7 6 7 9 10 9 10 9 10 7 5 4 5 5 6 6 7 8 10 10 12 13 14 15 15 16 16 16 16 16 15 15 15 15 15 14 15 14 14 14 15 15 15 16 13 12
4 3 3 3 4 3 3 5 5 3 3 6 7 7 8 9 7 4 4 7 6 4 6 6 4 1 2 2 3 4 4 3 3 3 2 4 4 3 1 3 6 5 7 10 9 7 8 9 9 9 8 9 8 6 7 7 8 8 9 10 12 13 14 14 15 15 16 16 17 16 16 15 15 15 14 15 15 15 14 13 13 15 14 13 13 14 12
5 3 4 5 5 4 10 7 5 7 8 7 6 8 9 7 3 4 5 3 5 2 4 7 6 4 1 1 0 2 2 2 4 4 3 2 2 3 3 4 6 5 5 8 9 8 10 9 9 6 5 6 7 9 10 10 10 12 13 13 14 15 15 16 16 16 16 16 16 15 15 16 15 15 16 16 16 14 13 14 15 14 13 14 15 14 13
3 4 5 3 3 3 4 7 8 10 8 8 8 8 8 8 7 4 5 3 5 4 3 0 1 0 4 3 3 3 4 2 4 4 3 5 4 5 4 6 7 10 6 8 10 10 9 9 7 9 11 10 11 11 10 11 12 12 13 14 14 15 15 15 16 17 16 15 14 14 12 12 13 14 15 15 15 14 14 14 14 13 13 13 13 13 14
2 3 4 6 5 6 7 6 8 10 9 10 9 8 7 7 8 8 6 6 4 4 5 5 2 1 2 2 4 4 5 4 4 3 5 8 5 5 6 11 9 9 8 9 10 10 10 11 11 11 11 13 11 10 11 12 12 13 13 14 15 14 14 16 16 16 16 15 15 15 15 14 14 13 14 14 13 14 14 14 14 13 13 12 11 9 10
3 5 6 8 9 5 5 7 7 5 5 7 8 6 4 7 10 6 6 5 5 2 2 3 2 1 2 3 3 3 2 1 5 7 7 6 4 6 10 11 10 10 11 10 11 10 11 11 10 11 10 10 10 10 11 13 14 13 14 15 14 14 15 15 16 15 16 16 15 13 15 15 14 15 15 15 15 15 15 15 13 12 12 11 12 12 11
4 8 8 9 10 10 9 7 6 7 7 5 5 3 4 8 9 5 7 6 6 5 5 3 3 3 3 6 4 3 2 2 5 5 8 6 3 7 7 9 10 10 11 12 12 11 11 11 11 9 8 10 10 12 13 13 13 14 14 13 13 14 14 14 14 15 15 14 14 14 15 16 16 15 14 14 15 14 14 12 11 12 11 10 9 10 12
Wind_Direction
325 328 332 334 338 338 337 343 349 356 353 360 347 323 282 262 60 309 356 17 312 332 297 70 38 33 62 120 87 2 41 343 63 346 21 12 10 4 357 351 339 38 359 337 313 333 318 323 332 331 340 333 115 340 334 343 303 314 301 326 85 263 260 269 266 274 272 268 268 254 287 306 273 307 291 66 252 219 278 294 21 203 270 272 257 239 222
326 330 332 335 338 337 335 340 347 354 10 349 318 303 323 17 42 92 78 283 275 271 30 67 57 47 34 36 70 64 5 348 0 19 58 353 360 346 349 332 0 330 0 314 316 334 313 350 320 321 336 345 131 49 78 15 316 318 31 348 27 310 236 283 297 296 285 275 222 27 343 352 342 321 320 320 291 327 17 314 83 333 243 248 267 259 196
327 331 333 334 335 335 336 338 341 349 356 350 323 318 325 310 282 90 49 299 312 29 10 14 120 92 57 33 33 353 9 46 355 330 25 342 11 318 341 347 318 325 343 312 309 320 306 309 319 307 313 313 116 165 190 288 276 284 95 304 342 285 280 292 285 297 302 299 301 329 349 344 320 308 317 317 332 358 4 349 2 285 283 280 256 261 272
331 333 333 331 333 336 336 336 338 341 351 348 329 310 288 304 22 61 124 343 49 52 10 12 346 122 140 182 54 353 6 115 107 348 29 317 21 338 323 326 339 344 335 330 328 318 313 309 320 313 312 316 312 334 323 320 315 100 122 245 295 276 289 272 272 274 280 286 298 211 180 212 274 296 280 281 284 288 254 271 255 250 295 291 277 310 314
331 333 333 331 334 337 337 338 337 337 341 353 322 286 248 303 11 356 357 275 123 86 20 43 11 31 355 343 30 7 349 14 3 76 299 65 24 328 351 335 335 349 332 332 320 310 315 323 314 308 311 318 317 325 330 318 71 98 290 45 294 265 266 272 278 276 274 288 285 285 271 274 268 264 272 280 274 244 247 235 246 349 334 277 252 218 243
330 332 332 333 336 337 339 339 337 336 332 341 303 294 289 316 68 353 45 320 21 347 42 339 69 7 308 88 307 345 355 353 319 12 254 357 39 340 11 294 341 329 334 323 308 322 315 314 312 331 317 322 323 321 314 314 123 315 357 9 311 318 298 289 293 282 284 280 283 282 267 259 264 266 271 273 270 267 248 243 245 237 229 256 288 292 284
329 331 333 335 337 338 341 341 339 338 331 331 261 311 348 17 40 58 322 304 56 5 356 328 311 75 341 94 252 41 358 323 325 342 341 5 354 350 326 318 336 336 333 319 310 317 322 320 326 313 322 318 321 305 307 300 186 301 332 9 101 340 257 277 291 303 299 291 283 282 288 267 259 263 267 271 269 263 259 258 256 252 255 266 270 271 278
328 333 337 339 340 340 344 343 344 341 336 321 250 26 346 21 343 38 297 122 69 67 312 263 262 216 104 260 61 329 291 344 358 320 5 15 302 348 319 326 341 333 314 312 305 315 315 313 308 319 308 303 294 298 297 305 311 321 310 303 133 236 297 312 304 301 298 296 296 288 256 262 282 271 263 265 272 270 257 249 247 253 254 247 263 292 294
329 334 345 345 343 343 345 344 347 343 343 334 343 62 16 337 6 325 326 300 83 237 239 273 292 45 135 222 88 289 10 4 73 283 321 307 359 340 320 337 327 309 307 302 303 319 310 305 294 295 290 283 290 292 290 296 295 302 304 291 272 172 280 298 301 299 293 297 306 315 327 305 281 274 267 266 267 266 304 295 344 300 319 335 324 288 279
327 338 351 350 345 343 345 346 346 352 334 325 348 27 359 321 176 241 298 308 120 267 201 232 258 68 38 24 35 353 29 278 1 347 301 53 281 279 339 340 327 308 310 316 319 318 310 301 300 292 289 282 277 265 269 280 287 291 291 298 293 262 288 294 313 305 286 301 310 313 293 290 279 264 195 11 324 287 314 296 287 234 237 282 292 281 234
321 343 354 353 348 343 343 348 347 359 354 14 355 357 1 4 343 324 318 298 226 271 303 42 40 51 333 70 334 109 301 314 311 317 327 345 359 358 342 333 321 311 299 316 326 310 305 305 296 290 278 275 268 260 262 261 268 269 276 280 278 280 271 283 324 280 296 302 311 312 302 289 300 309 257 302 351 325 306 307 308 314 243 279 292 310 327
315 339 355 358 346 340 341 348 346 356 360 337 320 302 32 339 320 286 286 292 309 329 269 60 40 62 5 49 262 313 326 346 340 5 310 323 322 322 320 297 306 295 329 326 308 317 310 291 280 271 261 251 249 253 259 270 275 284 280 279 285 282 297 300 287 263 286 308 309 304 290 298 69 81 15 337 356 9 356 334 320 26 13 30 31 8 350
302 320 348 354 340 334 336 349 344 344 353 339 322 326 18 345 315 317 309 313 302 358 351 72 57 78 38 338 321 289 313 345 336 352 300 284 297 302 295 304 294 302 330 311 330 319 312 315 315 318 309 305 274 225 232 252 266 264 260 257 262 276 286 320 295 282 293 292 284 291 293 327 357 106 56 6 25 31 335 328 342 39 31 31 24 10 22
296 305 320 329 327 325 329 340 341 338 346 350 329 338 346 342 339 323 333 321 305 38 355 245 143 121 140 105 322 328 315 270 264 238 284 303 280 305 308 299 307 324 316 327 315 314 315 326 331 323 327 326 331 298 262 252 269 284 281 269 249 281 311 132 280 300 287 290 294 288 301 290 53 34 22 352 10 359 10 336 360 24 27 19 25 25 360
288 300 308 318 320 321 323 330 336 333 341 345 315 300 331 353 345 329 319 300 302 309 283 4 20 99 77 19 20 314 276 234 223 240 209 242 241 289 307 302 315 319 330 317 318 320 318 320 317 324 323 336 342 327 323 325 329 298 273 350 326 87 280 125 169 260 245 299 308 298 304 304 41 28 12 359 346 337 341 349 302 31 22 21 22 13 355
289 293 304 312 314 310 312 320 327 328 342 344 317 299 53 26 331 290 297 299 308 287 68 44 46 10 304 75 173 273 287 313 336 315 286 215 244 307 308 339 321 329 318 318 310 305 302 301 303 316 323 326 335 328 322 319 316 337 280 202 235 193 230 203 263 272 285 279 280 283 299 18 32 9 328 328 308 325 324 301 295 21 351 11 13 355 337
285 299 305 307 309 304 302 310 317 322 337 1 332 317 356 45 331 331 319 298 259 295 57 67 30 305 265 232 192 246 340 2 15 337 325 336 228 276 305 325 289 276 286 296 320 324 328 312 316 315 312 328 322 324 316 317 330 321 319 300 272 196 202 240 235 262 270 283 286 298 354 336 338 339 322 330 320 319 316 290 37 334 330 311 304 299 309
283 299 307 309 309 299 293 302 309 315 327 350 325 315 317 47 356 321 286 280 298 275 85 40 340 273 323 9 334 46 307 254 237 246 268 282 279 346 344 330 317 23 17 282 311 307 310 314 310 315 310 322 332 332 317 335 316 319 323 324 323 310 302 232 276 285 285 283 279 279 260 152 305 322 320 329 320 313 337 311 333 300 298 297 303 289 296
280 288 307 313 310 296 290 299 310 309 320 343 323 274 237 27 343 334 298 281 258 281 99 57 341 283 302 310 312 15 50 344 328 316 300 288 29 350 309 344 67 310 296 306 305 289 299 304 303 303 314 321 334 327 337 309 315 314 318 327 323 330 20 314 297 284 319 329 303 300 309 82 306 307 313 314 296 298 341 265 207 248 279 280 275 281 297
274 285 297 309 310 290 290 295 297 296 303 345 332 310 332 335 341 339 330 323 327 287 34 90 35 344 72 316 311 255 152 137 246 277 298 298 36 354 322 241 144 245 291 336 303 316 321 319 325 328 307 317 324 341 303 308 327 315 315 317 308 5 258 312 314 308 233 277 307 319 319 167 226 326 312 26 331 348 338 304 302 265 270 274 274 281 287
271 290 275 292 304 294 301 304 292 279 291 306 300 302 290 117 298 301 291 319 301 291 152 55 344 307 48 263 249 275 265 295 348 275 323 303 354 339 317 4 327 341 332 343 308 313 311 300 323 315 309 309 326 321 319 320 308 311 321 327 334 37 317 331 340 23 315 306 310 339 330 351 87 66 300 283 229 281 325 338 321 310 270 269 291 317 358
271 300 325 336 351 352 339 3 8 323 297 315 311 278 272 223 289 333 319 297 277 274 337 348 331 328 332 343 6 309 308 318 326 4 298 283 291 297 322 309 306 311 348 352 301 300 319 340 321 314 308 313 316 307 323 311 304 324 351 66 338 88 314 343 269 304 288 302 302 298 312 347 310 168 234 238 323 14 0 13 337 338 325 333 315 330 322
232 299 318 265 22 9 1 7 13 5 352 2 303 264 306 355 62 60 285 273 250 261 273 272 256 261 240 254 287 308 268 199 238 245 245 256 278 266 268 277 306 6 313 326 316 307 295 304 298 309 301 304 320 311 304 295 297 325 327 4 312 155 198 254 296 313 306 278 263 265 283 328 341 320 351 14 359 341 359 352 331 314 302 304 311 314 316
219 225 254 1 2 359 347 340 344 346 351 7 314 303 316 337 344 288 225 243 297 303 270 228 250 237 236 206 173 169 201 260 236 226 105 284 258 285 252 63 357 316 301 36 18 310 319 309 299 310 291 302 316 299 305 306 305 318 318 316 315 41 78 32 271 294 336 296 337 353 347 333 330 344 351 358 351 338 321 316 298 289 293 306 307 305 306
212 217 218 243 333 317 319 320 328 336 337 347 314 238 263 275 267 273 292 294 293 291 304 166 213 32 48 50 133 188 214 318 120 174 209 204 246 264 277 344 348 343 314 318 304 294 293 298 300 295 292 305 307 297 305 303 303 340 315 309 321 319 101 304 302 305 271 283 309 339 333 312 327 37 325 340 338 333 330 320 319 315 320 321 325 323 315
196 203 205 164 251 287 280 290 308 325 333 338 325 291 262 301 323 292 316 273 276 272 270 291 129 160 230 192 194 232 161 188 185 173 184 210 229 255 285 307 298 313 307 298 286 283 296 288 289 286 289 296 339 298 295 306 304 306 296 294 318 339 329 308 358 289 278 273 286 299 312 315 339 341 330 334 330 328 329 330 326 327 329 326 323 331 333
188 184 194 215 237 265 272 283 294 314 328 328 307 265 269 289 312 272 261 329 305 220 219 252 191 150 167 217 204 122 183 228 249 257 251 223 240 234 237 242 261 273 286 295 297 299 278 258 259 272 283 290 302 281 289 289 293 298 289 312 54 28 292 319 310 307 316 333 325 328 327 323 324 324 326 329 330 328 322 320 319 320 318 318 318 316 317
192 192 205 220 242 251 270 275 281 301 315 315 289 286 278 281 248 260 274 282 286 307 323 322 333 21 324 275 240 234 237 211 221 249 230 240 230 234 241 240 248 269 276 285 292 279 281 280 277 298 292 299 310 294 298 290 284 277 287 344 63 314 317 313 312 319 310 317 316 310 294 290 302 316 326 329 323 322 319 320 315 315 318 322 322 319 316
193 194 189 211 242 258 254 260 270 284 319 310 284 269 244 254 256 263 275 284 314 285 289 294 292 277 268 42 103 220 244 269 246 251 300 310 287 262 244 252 267 266 253 251 261 266 260 265 278 281 301 37 309 288 304 292 290 285 309 322 251 276 187 273 285 299 291 299 310 310 311 310 312 320 327 318 317 323 325 321 321 324 326 324 318 314 311
182 187 188 221 240 246 252 256 257 270 296 268 228 231 260 207 196 215 199 265 265 271 291 303 279 254 13 173 246 245 262 235 189 223 224 228 245 268 292 264 231 229 237 237 254 263 274 279 281 285 287 129 264 295 282 289 293 295 311 317 324 318 275 249 286 307 299 305 300 302 308 304 311 318 312 310 329 342 330 326 326 329 328 331 321 315 314
181 190 200 217 222 235 242 247 254 246 258 240 223 210 223 175 128 194 143 216 217 268 279 274 273 321 292 224 214 231 221 227 237 261 276 290 288 285 285 287 273 250 221 216 226 246 257 265 277 274 278 252 267 265 283 295 294 290 307 317 324 325 325 318 310 279 284 298 307 318 309 313 323 317 317 334 332 328 322 318 324 322 327 318 317 320 334
188 199 220 217 219 220 230 238 260 247 234 236 269 346 19 2 356 329 143 227 242 250 242 277 279 238 272 217 180 184 220 268 272 241 237 240 240 229 250 258 292 310 315 308 311 304 268 283 273 282 279 112 136 266 274 277 275 281 300 306 326 313 307 301 289 289 307 308 325 313 322 326 329 332 330 329 321 314 314 320 319 327 324 319 317 333 348
186 205 206 206 216 212 210 221 241 248 227 326 307 244 277 287 275 288 152 116 209 249 267 272 272 327 280 71 119 167 183 188 239 237 236 186 241 224 274 288 271 253 190 234 236 250 259 254 269 272 286 136 217 268 277 267 268 283 295 306 314 310 309 307 303 313 311 321 330 328 328 326 327 326 320 312 307 317 322 317 327 330 332 331 338 343 348
196 201 202 217 208 198 194 202 219 227 282 275 236 191 183 203 223 258 322 205 243 246 241 260 270 247 269 45 259 128 183 248 267 204 226 168 266 273 275 283 265 282 180 203 228 239 256 274 271 271 274 249 242 269 267 267 275 285 308 319 308 310 294 294 306 316 325 325 330 326 325 327 322 311 305 308 317 319 321 332 334 334 338 335 338 343 347
202 193 215 215 191 187 193 209 196 202 205 213 93 107 135 163 354 101 184 255 226 200 205 235 253 279 265 239 250 151 211 235 271 56 321 188 196 244 8 319 281 258 284 222 267 251 264 248 247 263 263 275 260 250 252 271 281 294 310 302 299 307 305 311 311 323 319 325 323 326 332 330 316 310 317 320 321 329 337 334 334 335 332 334 333 340 335
197 201 213 200 176 206 182 216 236 207 223 212 140 126 129 177 203 197 162 245 276 323 273 246 224 246 261 275 274 100 261 242 243 292 238 332 288 262 253 250 277 265 254 248 270 286 276 275 246 251 261 258 250 254 271 283 294 299 292 286 296 304 309 309 313 315 319 316 326 321 324 324 318 319 318 320 322 322 324 329 328 328 327 327 333 336 331
193 210 195 187 196 201 198 197 183 217 319 98 125 130 164 195 149 172 192 230 189 197 286 303 270 250 241 264 321 189 206 258 203 211 224 236 275 36 292 273 271 299 305 279 266 261 260 189 210 260 261 264 275 282 285 288 288 290 295 299 295 299 307 313 320 317 314 321 322 324 333 330 326 324 323 322 323 327 323 328 330 324 323 325 327 327 331
183 206 174 183 195 196 191 210 184 123 105 117 133 138 160 209 166 176 187 227 190 201 229 232 253 268 287 281 266 79 274 311 357 337 306 307 319 275 330 317 300 340 284 289 283 279 290 279 251 259 267 264 269 263 262 269 277 286 284 285 296 302 309 315 314 314 320 320 326 330 325 318 319 324 318 316 317 318 306 310 316 316 311 313 316 319 322
170 190 222 206 203 197 222 128 115 138 146 162 237 212 149 178 178 212 201 194 167 217 215 234 247 249 258 258 250 117 275 20 336 306 271 129 184 287 254 268 248 212 268 283 275 119 274 261 270 272 269 276 270 308 323 311 299 288 281 284 292 295 305 304 312 317 318 315 316 318 322 321 321 319 316 317 325 320 309 305 320 320 314 310 310 313 314
180 190 205 200 222 87 62 118 166 174 192 178 180 242 194 181 192 222 154 182 199 219 200 227 230 239 246 243 241 184 66 253 254 282 343 348 33 291 350 341 307 297 283 275 284 299 280 286 282 282 278 280 291 115 334 18 317 295 288 293 299 307 313 311 314 314 311 310 310 312 312 309 310 305 307 307 300 296 301 309 313 309 311 308 318 316 311
184 182 194 210 129 122 146 165 203 219 188 199 179 217 216 223 197 245 222 213 216 216 180 233 199 205 226 247 246 236 117 352 4 309 278 277 37 13 277 269 338 296 280 273 289 279 278 279 285 277 287 293 289 312 2 281 286 291 290 287 293 294 299 301 292 295 308 309 303 302 305 309 308 307 307 305 309 308 309 306 302 296 288 296 329 332 327
166 194 62 96 118 131 143 183 197 191 232 214 164 203 189 238 219 208 228 227 210 208 197 200 222 221 225 201 196 230 138 153 16 334 326 280 267 270 284 287 286 261 266 280 302 277 273 269 268 270 281 287 294 295 283 315 305 301 289 279 274 284 298 297 302 309 309 306 311 316 318 318 314 308 301 303 305 305 302 303 282 261 264 268 249 239 284
320 284 176 130 141 158 194 207 207 217 197 189 168 222 193 214 214 214 213 220 263 253 183 178 201 69 48 117 152 193 110 122 227 206 209 251 132 160 251 262 258 257 271 287 270 275 274 276 271 274 282 289 298 347 22 2 322 294 291 302 304 307 305 301 301 304 308 308 311 309 310 310 309 310 313 310 309 309 308 307 310 305 300 234 234 231 233
215 172 163 165 168 206 192 232 183 186 218 191 172 203 189 206 212 194 230 199 180 230 215 174 173 201 193 159 242 136 82 167 119 209 256 243 250 264 273 255 248 269 284 265 262 263 272 285 288 293 285 288 328 33 10 342 313 301 299 305 304 303 305 305 308 306 305 306 304 309 313 308 308 306 306 304 305 305 305 302 300 300 301 291 282 268 278
160 178 181 175 207 194 135 271 173 169 205 198 202 217 194 205 201 203 224 206 167 214 169 180 171 197 210 121 252 247 351 162 99 237 263 292 272 252 240 254 272 273 267 273 275 274 272 269 280 277 281 342 45 6 355 337 326 317 309 305 300 306 306 305 303 303 301 303 308 309 304 309 312 310 307 306 305 305 306 308 316 316 309 303 301 297 296
180 175 174 180 244 229 202 237 173 208 217 200 214 207 223 233 235 230 218 187 179 198 153 162 189 208 173 142 237 197 140 191 204 213 217 226 241 249 253 293 292 275 272 267 265 262 262 266 271 278 309 74 65 357 334 326 318 311 305 301 305 304 300 296 296 295 297 300 302 306 311 309 303 302 304 310 312 312 314 313 309 306 311 313 310 305 300
181 192 205 217 239 224 208 234 217 204 210 210 216 220 221 239 258 335 69 148 192 209 158 148 197 174 236 193 218 210 187 193 242 253 254 261 253 272 254 250 255 250 261 260 258 263 270 281 283 289 314 329 324 310 299 307 304 297 297 302 304 302 303 303 305 307 308 305 308 309 305 305 307 308 310 307 306 305 303 305 316 321 316 309 311 308 301
195 179 198 215 221 201 211 224 239 243 235 247 238 216 222 221 145 170 191 121 68 77 186 193 183 98 257 136 79 286 295 272 250 234 211 251 260 254 263 254 252 254 252 263 264 269 275 278 288 320 353 343 330 332 328 321 319 321 321 317 315 310 312 310 306 304 309 310 308 306 306 305 304 305 305 303 302 302 309 314 310 306 304 307 308 308 306
228 203 199 225 233 240 229 218 223 242 243 247 251 260 253 231 233 205 150 118 122 118 68 235 358 330 237 177 188 211 234 200 234 238 197 216 226 232 224 244 248 254 246 249 268 271 275 291 313 330 320 320 325 318 316 320 321 320 317 310 307 309 308 305 309 312 309 306 306 307 305 308 308 304 301 301 303 305 310 309 305 304 309 309 315 321 313
232 239 234 234 234 242 248 250 222 234 228 240 246 241 249 247 236 240 146 140 141 140 101 91 143 229 286 322 268 231 231 217 216 217 231 240 236 236 238 250 245 254 267 272 281 293 304 305 308 310 314 309 314 320 317 316 318 314 307 310 312 309 308 311 309 305 304 304 303 301 304 305 301 299 305 311 314 314 308 303 303 302 303 305 309 301 297
223 240 233 217 225 234 210 227 237 246 235 234 232 237 231 238 239 228 138 143 132 161 172 197 152 189 236 229 240 250 243 255 252 245 247 247 233 244 244 252 258 263 266 268 274 281 287 295 298 300 309 311 312 318 315 308 305 305 307 306 304 306 306 303 303 308 308 306 306 309 307 303 304 304 304 305 303 302 302 300 300 304 308 309 308 307 305
214 218 222 224 231 236 243 272 281 262 258 272 281 261 256 254 243 215 151 156 152 191 183 188 175 196 202 221 220 232 283 253 242 236 239 236 229 247 253 264 279 280 286 289 292 296 298 295 295 305 310 313 321 313 308 307 309 311 307 305 308 304 302 304 306 305 305 306 308 306 304 304 303 303 304 301 300 301 299 300 306 307 305 298 292 296 298